Content
SEND FEEDBACK

Daily
Averages
Monthly
Summary
United States of America

PLYMOUTH, OHIO


Home > North America > United States > Ohio
Elevation: 1010 feet     Latitude: 41 00N     Longitude: 082 40W

WEATHER
 
SELECT A DAY
Number of Records: 215,894;   Date Range: 1/1/95 - 10/20/14
 
SHARE

PRINT THIS DATA

[ ← Previous Day ]
WEATHER ALMANAC - JANUARY 31, 2013
[ Next Day → ]
[ °C ]   °F
Weather ElementAverageHighLow
Temperature22.8 °F32 °F (12:52 am)15.1 °F (11:52 pm)
Dewpoint16.1 °F26.1 °F (12:52 am)5 °F (11:52 pm)
Humidity75.9 %88 % (4:52 am)63 % (12:44 pm)
Barometer29.69 in29.92 in (11:52 pm)29.38 in (12:52 am)
Wind Speed17.6 mph26.5 mph (12:52 am)
Wind Gust41.4 mph (3:41 am)
Weather ElementAverage
Visibility4.9 mi
Wind DirectionWSW (252.3 °)

Weather ElementTotal
Precipitation---
Heating Degree Days41.5 (Base 65)
Averaged from 77 records on January 31, 2013
WEATHER CONDITIONS BREAKOUT
WIND DIRECTION BREAKOUT
WEATHER BY HOUR - JANUARY 31, 2013
[ °C ]   °F
Local TimeTemperatureDewpointHumidityBarometerVisibilityWind DirectionWind SpeedGust SpeedPrecipitationEventsConditions
12:52 AM32.0 °F26.1 °F79 %29.38 in10.0 miWest (260°)26.5 mph36.8 mph0.00 inOvercast
1:45 AM30.2 °F21.2 °F69 %29.41 in10.0 miWest (260°)21.9 mph38.0 mphOvercast
1:52 AM30.0 °F21.9 °F72 %29.43 in10.0 miWest (270°)18.4 mph39.1 mphOvercast
2:52 AM30.0 °F21.9 °F72 %29.47 in10.0 miWest (260°)17.3 mph27.6 mphOvercast
3:10 AM28.4 °F24.8 °F86 %29.46 in2.5 miWest (260°)21.9 mph31.1 mph0.00 inSnowLight Snow
3:15 AM28.4 °F24.8 °F86 %29.47 in0.8 miWest (260°)17.3 mph32.2 mph0.00 inSnowLight Snow
3:25 AM28.4 °F24.8 °F86 %29.47 in2.0 miWSW (250°)20.7 mph28.8 mph0.00 inSnowLight Snow
3:32 AM28.4 °F24.8 °F86 %29.47 in9.0 miWest (260°)18.4 mph34.5 mph0.00 inOvercast
3:41 AM28.4 °F21.2 °F74 %29.48 in10.0 miWest (260°)25.3 mph41.4 mph0.00 inOvercast
3:52 AM28.0 °F19.9 °F72 %29.50 in10.0 miWSW (250°)18.4 mph40.3 mph0.00 inOvercast
4:16 AM26.6 °F21.2 °F80 %29.49 in2.5 miWSW (250°)18.4 mph35.7 mph0.00 inSnowLight Snow
4:24 AM26.6 °F23.0 °F86 %29.50 in1.5 miWSW (250°)24.2 mph32.2 mph0.00 inSnowLight Snow
4:28 AM26.6 °F21.2 °F80 %29.50 in3.0 miWSW (240°)21.9 mph33.4 mph0.00 inSnowLight Snow
4:47 AM26.6 °F21.2 °F80 %29.51 in1.8 miWSW (250°)20.7 mph34.5 mph0.00 inSnowLight Snow
4:52 AM25.0 °F21.9 °F88 %29.54 in0.8 miWSW (250°)19.6 mph31.1 mph0.00 inSnowLight Snow
5:02 AM24.8 °F21.2 °F86 %29.52 in1.2 miWSW (250°)20.7 mph32.2 mph0.00 inSnowLight Snow
5:13 AM24.8 °F21.2 °F86 %29.53 in2.0 miWSW (250°)26.5 mph40.3 mph0.00 inSnowLight Snow
5:19 AM24.8 °F19.4 °F80 %29.54 in3.0 miWSW (240°)17.3 mph40.3 mph0.00 inSnowLight Snow
5:52 AM24.1 °F19.0 °F81 %29.58 in4.0 miWSW (240°)25.3 mph33.4 mph0.00 inSnowLight Snow
6:52 AM23.0 °F16.0 °F74 %29.62 in5.0 miWSW (240°)19.6 mph38.0 mph0.00 inSnowLight Snow
7:07 AM21.2 °F15.8 °F80 %29.61 in4.0 miWSW (240°)17.3 mph27.6 mph0.00 inSnowLight Snow
7:28 AM21.2 °F15.8 °F80 %29.62 in5.0 miWSW (250°)15.0 mph29.9 mphSnowLight Snow
7:50 AM21.2 °F12.2 °F68 %29.63 in9.0 miWest (260°)21.9 mph34.5 mph0.00 inOvercast
7:52 AM21.9 °F12.0 °F66 %29.66 in9.0 miWest (260°)23.0 mph34.5 mph0.00 inOvercast
8:13 AM21.2 °F15.8 °F80 %29.64 in1.8 miWSW (250°)17.3 mph24.2 mph0.00 inSnowLight Snow
8:24 AM21.2 °F15.8 °F80 %29.65 in3.0 miWSW (250°)15.0 mph27.6 mph0.00 inSnowLight Snow
8:52 AM21.9 °F15.1 °F75 %29.69 in7.0 miWSW (250°)12.7 mph25.3 mph0.00 inSnowLight Snow
9:06 AM21.2 °F15.8 °F80 %29.67 in2.5 miWSW (240°)15.0 mph23.0 mph0.00 inSnowLight Snow
9:14 AM21.2 °F15.8 °F80 %29.67 in1.0 miWSW (240°)16.1 mph23.0 mph0.00 inSnowLight Snow
9:24 AM21.2 °F17.6 °F86 %29.67 in0.8 miWSW (250°)10.4 mph21.9 mph0.00 inSnowLight Snow
9:52 AM19.9 °F14.0 °F78 %29.73 in2.0 miWSW (240°)19.6 mph31.1 mph0.00 inSnowLight Snow
10:02 AM19.4 °F12.2 °F74 %29.70 in5.0 miWest (260°)23.0 mph39.1 mph0.00 inSnowLight Snow
10:16 AM19.4 °F10.4 °F68 %29.71 in10.0 miWest (260°)19.6 mph32.2 mph0.00 inOvercast
10:52 AM19.9 °F10.0 °F65 %29.77 in10.0 miWSW (240°)17.3 mph25.3 mph0.00 inOvercast
11:19 AM19.4 °F12.2 °F74 %29.73 in1.5 miWSW (240°)15.0 mph24.2 mph0.00 inSnowLight Snow
11:22 AM19.4 °F14.0 °F80 %29.73 in0.8 miWSW (240°)13.8 mph24.2 mph0.00 inSnowLight Snow
11:35 AM19.4 °F12.2 °F74 %29.74 in2.5 miWSW (240°)19.6 mph32.2 mph0.00 inSnowLight Snow
11:42 AM19.4 °F12.2 °F74 %29.74 in3.0 miWSW (240°)16.1 mph32.2 mph0.00 inSnowLight Snow
11:49 AM19.4 °F12.2 °F74 %29.74 in1.8 miWSW (250°)20.7 mph28.8 mph0.00 inSnowLight Snow
11:52 AM19.0 °F12.9 °F77 %29.79 in1.2 miWSW (250°)19.6 mph28.8 mph0.00 inSnowLight Snow
12:12 PM19.4 °F15.8 °F86 %29.74 in0.8 miWest (260°)13.8 mph24.2 mph0.00 inSnowLight Snow
12:23 PM19.4 °F12.2 °F74 %29.74 in1.8 miWest (260°)21.9 mph31.1 mph0.00 inSnowLight Snow
12:25 PM19.4 °F12.2 °F74 %29.74 in3.0 miWest (260°)21.9 mph31.1 mph0.00 inSnowLight Snow
12:44 PM21.2 °F10.4 °F63 %29.74 in10.0 miWest (260°)20.7 mph36.8 mph0.00 inOvercast
12:52 PM21.0 °F10.9 °F65 %29.79 in4.0 miWest (260°)19.6 mph40.3 mph0.00 inSnowLight Snow
1:52 PM21.9 °F14.0 °F72 %29.79 in6.0 miWSW (250°)16.1 mph28.8 mph0.00 inSnowLight Snow
2:30 PM23.0 °F15.8 °F74 %29.75 in2.5 miSW (230°)20.7 mph32.2 mph0.00 inSnowLight Snow
2:40 PM21.2 °F17.6 °F86 %29.75 in1.0 miWSW (250°)16.1 mph26.5 mph0.00 inSnowLight Snow
2:52 PM23.0 °F18.0 °F81 %29.79 in1.2 miWSW (250°)13.8 mph25.3 mph0.00 inSnowLight Snow
2:56 PM24.8 °F17.6 °F74 %29.75 in3.0 miWSW (250°)13.8 mph21.9 mph0.00 inSnowLight Snow
3:19 PM24.8 °F17.6 °F74 %29.75 in2.0 miWSW (240°)11.5 mph24.2 mph0.00 inSnowLight Snow
3:27 PM23.0 °F17.6 °F80 %29.75 in1.0 miWSW (250°)18.4 mph28.8 mph0.00 inSnowLight Snow
3:33 PM23.0 °F17.6 °F80 %29.75 in4.0 miWSW (250°)16.1 mph28.8 mph0.00 inSnowLight Snow
3:42 PM24.8 °F17.6 °F74 %29.75 in10.0 miWSW (250°)16.1 mph26.5 mph0.00 inMostly Cloudy
3:49 PM24.8 °F17.6 °F74 %29.76 in9.0 miWSW (240°)20.7 mph26.5 mph0.00 inMostly Cloudy
3:52 PM24.1 °F17.1 °F75 %29.80 in4.0 miWSW (240°)19.6 mph26.5 mph0.00 inSnowLight Snow
3:57 PM24.8 °F17.6 °F74 %29.75 in2.5 miWSW (240°)17.3 mph27.6 mph0.00 inSnowLight Snow
4:03 PM24.8 °F17.6 °F74 %29.75 in3.0 miWest (260°)19.6 mph27.6 mph0.00 inSnowLight Snow
4:19 PM24.8 °F14.0 °F64 %29.75 in10.0 miWSW (240°)17.3 mph27.6 mph0.00 inOvercast
4:40 PM23.0 °F17.6 °F80 %29.76 in0.8 miWSW (250°)18.4 mph29.9 mph0.00 inSnowLight Snow
4:48 PM21.2 °F17.6 °F86 %29.77 in2.0 miWSW (240°)12.7 mph28.8 mph0.00 inSnowLight Snow
4:52 PM23.0 °F17.1 °F78 %29.82 in8.0 miWSW (250°)12.7 mph26.5 mph0.00 inMostly Cloudy
5:11 PM21.2 °F17.6 °F86 %29.77 in1.8 miWSW (250°)10.4 mph27.6 mphSnowLight Snow
5:19 PM23.0 °F15.8 °F74 %29.77 in4.0 miWSW (250°)15.0 mph23.0 mph0.00 inSnowLight Snow
5:28 PM23.0 °F15.8 °F74 %29.77 in7.0 miWSW (250°)20.7 mph26.5 mph0.00 inSnowLight Snow
5:40 PM23.0 °F15.8 °F74 %29.78 in3.0 miWSW (250°)12.7 mph27.6 mph0.00 inSnowLight Snow
5:52 PM21.9 °F15.1 °F75 %29.83 in8.0 miWSW (240°)12.7 mph21.9 mph0.00 inSnowLight Snow
6:52 PM21.9 °F12.0 °F66 %29.84 in10.0 miWSW (250°)17.3 mph26.5 mph0.00 inSnowLight Snow
7:34 PM21.2 °F12.2 °F68 %29.81 in10.0 miWest (260°)10.4 mph18.4 mph0.00 inOvercast
7:44 PM21.2 °F12.2 °F68 %29.82 in7.0 miWest (260°)13.8 mph21.9 mph0.00 inSnowLight Snow
7:52 PM21.0 °F12.0 °F68 %29.88 in9.0 miWest (260°)11.5 mph21.9 mph0.00 inOvercast
8:52 PM19.0 °F10.9 °F71 %29.89 in9.0 miWest (280°)13.8 mph21.9 mph0.00 inOvercast
9:33 PM19.4 °F8.6 °F63 %29.84 in10.0 miWest (270°)16.1 mph23.0 mphOvercast
9:52 PM18.0 °F10.0 °F71 %29.91 in10.0 miWest (270°)17.3 mph23.0 mphOvercast
10:23 PM17.6 °F10.4 °F73 %29.85 in3.0 miWNW (300°)10.4 mph19.6 mph0.00 inSnowLight Snow
10:52 PM16.0 °F8.1 °F71 %29.91 in9.0 miWest (280°)10.4 mph23.0 mph0.00 inSnowLight Snow
11:52 PM15.1 °F5.0 °F64 %29.92 in10.0 miWest (280°)16.1 mph23.0 mph0.00 inOvercast
Hourly data recorded from KMFD, located miles away from Plymouth, Ohio







STORIES FROM OUR PARTNERS